Weather History for Peoria, IL

Change the Weather History Date:

Monday, February 27, 2012

  Actual Average Record
Temperature  
Mean Temperature 34 °F 34 °F  
Max Temperature 41 °F 42 °F 72 °F (1976)
Min Temperature 26 °F 25 °F -9 °F (1934)
Degree Days  
Heating Degree Days 31 31  
Month to date heating degree days 839 964  
Since 1 July heating degree days 3838 4485  
Cooling Degree Days 0 0  
Month to date cooling degree days 0 0  
Year to date cooling degree days 0 0  
Moisture  
Dew Point 20 °F    
Average Humidity 58    
Maximum Humidity 75    
Minimum Humidity 41    
Precipitation  
Precipitation 0.00 in 0.08 in 1.18 in (2011)
Month to date precipitation 1.00 1.71  
Year to date precipitation 2.20 3.49  
Snow  
Snow 0.00 in 0.20 in 3.00 in (1984)
Month to date snowfall 1.9 6.0  
Since 1 July snowfall 10.4 21.1  
Snow Depth 0.00 in    
Sea Level Pressure  
Sea Level Pressure 30.40 in    
Wind  
Wind Speed 7 mph (NW)    
Max Wind Speed 17 mph    
Max Gust Speed 24 mph    
Visibility 10 miles    
Events      
T = Trace of Precipitation, MM = Missing Value Source: NWS Daily Summary

Daily Weather History Graph

Daily Weather History Graph

Search for Another Location

Airport:

Trip Planner

Search our weather history database for the weather conditions in past years. The results will help you decide how hot, cold, wet, or windy it might be!

Date:

Astronomy

Feb. 27, 2012 Rise Set
Actual Time 6:36 AM CST 5:47 PM CST
Civil Twilight 6:08 AM CST 6:14 PM CST
Nautical Twilight 5:37 AM CST 6:46 PM CST
Astronomical Twilight 5:05 AM CST 7:18 PM CST
Moon 9:03 AM CST (2/27) 11:43 PM CST (2/27)
Length of Visible Light 12h 05m
Length of Day
11h 10m
Waxing Crescent, 29% of the Moon is Illuminated
Feb 27
Waxing Crescent
Feb 29
First Quarter
Mar 8
Full
Mar 14
Last Quarter
Mar 22
New

Hourly Weather History & Observations

Time (CST) Temp. Windchill Dew Point Humidity Pressure Visibility Wind Dir Wind Speed Gust Speed Precip Events Conditions
12:54 AM 37.9 °F - 27.0 °F 65% 30.17 in 10.0 mi Calm Calm - N/A   Scattered Clouds
1:54 AM 35.1 °F 31.0 °F 26.1 °F 70% 30.22 in 10.0 mi NW 4.6 mph - N/A   Clear
2:54 AM 34.0 °F 27.2 °F 24.1 °F 67% 30.23 in 10.0 mi WNW 8.1 mph - N/A   Clear
3:54 AM 32.0 °F 27.5 °F 21.9 °F 66% 30.25 in 10.0 mi West 4.6 mph - N/A   Clear
4:54 AM 30.9 °F 24.3 °F 21.9 °F 69% 30.28 in 10.0 mi West 6.9 mph - N/A   Clear
5:54 AM 30.0 °F 21.7 °F 21.0 °F 69% 30.31 in 10.0 mi West 9.2 mph - N/A   Clear
6:54 AM 28.9 °F 19.8 °F 17.1 °F 61% 30.34 in 10.0 mi WNW 10.4 mph - N/A   Clear
7:54 AM 28.9 °F 18.6 °F 17.1 °F 61% 30.38 in 10.0 mi WNW 12.7 mph 21.9 mph N/A   Clear
8:54 AM 30.9 °F 21.2 °F 17.1 °F 57% 30.41 in 10.0 mi NW 12.7 mph 23.0 mph N/A   Clear
9:54 AM 33.1 °F 24.4 °F 18.0 °F 54% 30.43 in 10.0 mi WNW 11.5 mph 19.6 mph N/A   Clear
10:54 AM 34.0 °F 25.5 °F 18.0 °F 52% 30.45 in 10.0 mi NW 11.5 mph 19.6 mph N/A   Clear
11:54 AM 37.0 °F 30.4 °F 18.0 °F 46% 30.46 in 10.0 mi NNW 9.2 mph 18.4 mph N/A   Clear
12:54 PM 37.9 °F 31.5 °F 18.0 °F 45% 30.45 in 10.0 mi NW 9.2 mph 18.4 mph N/A   Clear
1:54 PM 39.9 °F 34.5 °F 19.9 °F 45% 30.45 in 10.0 mi WNW 8.1 mph - N/A   Clear
2:54 PM 41.0 °F 35.2 °F 19.9 °F 43% 30.46 in 10.0 mi West 9.2 mph - N/A   Clear
3:54 PM 39.9 °F 33.4 °F 21.0 °F 47% 30.48 in 10.0 mi WNW 10.4 mph 16.1 mph N/A   Clear
4:54 PM 39.0 °F 34.0 °F 21.0 °F 49% 30.48 in 10.0 mi NW 6.9 mph - N/A   Clear
5:54 PM 36.0 °F 33.3 °F 21.0 °F 55% 30.48 in 10.0 mi WNW 3.5 mph - N/A   Clear
6:54 PM 34.0 °F - 21.0 °F 59% 30.50 in 10.0 mi Calm Calm - N/A   Clear
7:54 PM 30.9 °F - 19.9 °F 64% 30.49 in 10.0 mi Calm Calm - N/A   Clear
8:54 PM 30.0 °F - 21.0 °F 69% 30.49 in 10.0 mi Calm Calm - N/A   Clear
9:54 PM 27.0 °F 23.0 °F 19.9 °F 75% 30.49 in 10.0 mi NNE 3.5 mph - N/A   Clear
10:54 PM 28.0 °F - 21.0 °F 75% 30.49 in 10.0 mi Calm Calm - N/A   Clear
11:54 PM 27.0 °F 20.5 °F 21.0 °F 78% 30.48 in 10.0 mi NE 5.8 mph - N/A   Clear